| time (UTC) | temp F | wind direction | speed knots | gust knots | rain 1hr in | rain 24hr in | rain mn in | humidity % | barometer mb |
| 20260510174554 | 55 | 35 | 3.5 | 9.6 | 0.00 | 0.00 | 0.00 | 73 | 1014.3 |
| 20260510173059 | 55 | 61 | 4.3 | 13.9 | 0.00 | 0.00 | 0.00 | 72 | 1014.3 |
| 20260510171548 | 56 | 65 | 3.5 | 14.8 | 0.00 | 0.00 | 0.00 | 72 | 1014.5 |
| 20260510170045 | 55 | 349 | 4.3 | 13.0 | 0.00 | 0.00 | 0.00 | 70 | 1014.4 |
| 20260510164606 | 55 | 2 | 6.1 | 17.4 | 0.00 | 0.00 | 0.00 | 75 | 1014.6 |
| 20260510163050 | 55 | 44 | 1.7 | 16.5 | 0.00 | 0.00 | 0.00 | 76 | 1014.6 |
| 20260510161552 | 54 | 42 | 3.5 | 12.2 | 0.00 | 0.00 | 0.00 | 76 | 1014.7 |
| 20260510160055 | 54 | 77 | 5.2 | 13.0 | 0.00 | 0.00 | 0.00 | 76 | 1014.9 |
| 20260510154547 | 55 | 66 | 2.6 | 9.6 | 0.00 | 0.00 | 0.00 | 74 | 1014.9 |
| 20260510153050 | 54 | 105 | 2.6 | 10.4 | 0.00 | 0.00 | 0.00 | 76 | 1015.1 |
| 20260510151555 | 54 | 45 | 3.5 | 10.4 | 0.00 | 0.00 | 0.00 | 75 | 1015.2 |
| 20260510150053 | 55 | 92 | 3.5 | 10.4 | 0.00 | 0.00 | 0.00 | 76 | 1015.2 |
| 20260510144550 | 56 | 84 | 3.5 | 11.3 | 0.00 | 0.00 | 0.00 | 75 | 1015.4 |
| 20260510143046 | 56 | 30 | 4.3 | 13.9 | 0.00 | 0.00 | 0.00 | 75 | 1015.4 |
| 20260510141549 | 56 | 70 | 3.5 | 9.6 | 0.00 | 0.00 | 0.00 | 74 | 1015.5 |
| 20260510140046 | 56 | 46 | 2.6 | 13.9 | 0.00 | 0.00 | 0.00 | 73 | 1015.5 |
| 20260510134554 | 57 | 64 | 2.6 | 13.9 | 0.00 | 0.00 | 0.00 | 73 | 1015.6 |
| 20260510133050 | 58 | 88 | 1.7 | 14.8 | 0.00 | 0.00 | 0.00 | 75 | 1015.6 |
| 20260510131551 | 58 | 56 | 2.6 | 8.7 | 0.00 | 0.00 | 0.00 | 73 | 1015.6 |
| 20260510130047 | 58 | 63 | 5.2 | 14.8 | 0.00 | 0.00 | 0.00 | 72 | 1015.5 |
| 20260510124552 | 58 | 18 | 4.3 | 15.6 | 0.00 | 0.00 | 0.00 | 74 | 1015.8 |
| 20260510123045 | 58 | 53 | 3.5 | 12.2 | 0.00 | 0.00 | 0.00 | 71 | 1015.8 |
| 20260510121555 | 58 | 83 | 2.6 | 14.8 | 0.00 | 0.00 | 0.00 | 73 | 1015.9 |
| 20260510120104 | 58 | 86 | 3.5 | 10.4 | 0.00 | 0.00 | 0.00 | 73 | 1016.0 |
| 20260510114606 | 58 | 57 | 3.5 | 8.7 | 0.00 | 0.00 | 0.00 | 73 | 1016.1 |
| 20260510113050 | 56 | 57 | 4.3 | 11.3 | 0.00 | 0.00 | 0.00 | 77 | 1016.3 |
| 20260510111546 | 55 | 345 | 4.3 | 13.0 | 0.00 | 0.00 | 0.00 | 76 | 1016.5 |
| 20260510110045 | 57 | 119 | 3.5 | 13.9 | 0.00 | 0.00 | 0.00 | 74 | 1016.4 |
| 20260510104606 | 56 | 62 | 4.3 | 10.4 | 0.00 | 0.00 | 0.00 | 75 | 1016.6 |
| 20260510103054 | 55 | 98 | 5.2 | 13.0 | 0.00 | 0.00 | 0.00 | 75 | 1016.5 |
| 20260510101547 | 55 | 4 | 3.5 | 10.4 | 0.00 | 0.00 | 0.00 | 77 | 1016.7 |
| 20260510100055 | 55 | 116 | 4.3 | 15.6 | 0.00 | 0.00 | 0.00 | 77 | 1016.8 |
| 20260510094549 | 55 | 16 | 1.7 | 10.4 | 0.00 | 0.00 | 0.00 | 77 | 1016.8 |
| 20260510093051 | 54 | 39 | 3.5 | 12.2 | 0.00 | 0.00 | 0.00 | 78 | 1016.8 |
| 20260510091549 | 53 | 24 | 4.3 | 13.0 | 0.00 | 0.00 | 0.00 | 79 | 1017.0 |
| 20260510090056 | 53 | 44 | 4.3 | 13.0 | 0.00 | 0.00 | 0.00 | 78 | 1017.0 |
| 20260510084554 | 52 | 81 | 3.5 | 15.6 | 0.00 | 0.00 | 0.00 | 81 | 1017.2 |
| 20260510083051 | 52 | 329 | 3.5 | 13.0 | 0.00 | 0.00 | 0.00 | 80 | 1017.3 |
| 20260510081549 | 51 | 76 | 4.3 | 10.4 | 0.00 | 0.00 | 0.00 | 82 | 1017.3 |
| 20260510080045 | 51 | 11 | 1.7 | 12.2 | 0.00 | 0.00 | 0.00 | 83 | 1017.2 |
| 20260510074602 | 50 | 93 | 2.6 | 9.6 | 0.00 | 0.00 | 0.00 | 84 | 1017.0 |
| 20260510073050 | 49 | 78 | 1.7 | 16.5 | 0.00 | 0.00 | 0.00 | 86 | 1017.0 |
| 20260510071556 | 49 | 110 | 1.7 | 8.7 | 0.00 | 0.00 | 0.00 | 87 | 1016.8 |
| 20260510070051 | 48 | 56 | 1.7 | 7.0 | 0.00 | 0.00 | 0.00 | 88 | 1016.9 |
| 20260510064603 | 47 | 75 | 3.5 | 7.8 | 0.00 | 0.00 | 0.00 | 89 | 1016.8 |
| 20260510063045 | 47 | 32 | 2.6 | 10.4 | 0.00 | 0.00 | 0.00 | 89 | 1016.7 |
| 20260510061544 | 46 | 94 | 2.6 | 11.3 | 0.00 | 0.00 | 0.00 | 90 | 1016.6 |
| 20260510060052 | 46 | 103 | 2.6 | 7.0 | 0.00 | 0.00 | 0.00 | 91 | 1016.6 |
| 20260510054547 | 46 | 56 | 0.9 | 7.0 | 0.00 | 0.00 | 0.00 | 91 | 1016.7 |
| 20260510053047 | 45 | 38 | 2.6 | 11.3 | 0.00 | 0.00 | 0.00 | 91 | 1016.8 |
| 20260510051554 | 45 | 78 | 0.9 | 7.0 | 0.00 | 0.00 | 0.00 | 91 | 1016.9 |
| 20260510050047 | 45 | 90 | 0.9 | 7.0 | 0.00 | 0.00 | 0.00 | 91 | 1016.8 |
| 20260510044550 | 45 | 62 | 1.7 | 5.2 | 0.00 | 0.00 | 0.00 | 90 | 1016.8 |
| 20260510043059 | 45 | 90 | 1.7 | 5.2 | 0.00 | 0.00 | 0.00 | 88 | 1016.7 |
| 20260510041608 | 46 | 59 | 1.7 | 8.7 | 0.00 | 0.00 | 0.00 | 86 | 1016.7 |
| 20260510040049 | 46 | 4 | 2.6 | 9.6 | 0.00 | 0.00 | 0.00 | 84 | 1016.8 |
| 20260510034550 | 47 | 347 | 2.6 | 7.0 | 0.00 | 0.00 | 0.00 | 82 | 1016.8 |
| 20260510033055 | 47 | 83 | 0.0 | 7.0 | 0.00 | 0.00 | 0.00 | 80 | 1017.0 |
| 20260510031544 | 48 | 66 | 1.7 | 7.8 | 0.00 | 0.00 | 0.00 | 79 | 1017.1 |
| 20260510030052 | 48 | 47 | 0.9 | 7.0 | 0.00 | 0.00 | 0.00 | 78 | 1016.8 |
| 20260510024556 | 49 | 356 | 1.7 | 8.7 | 0.00 | 0.00 | 0.00 | 77 | 1017.0 |
| 20260510023049 | 49 | 43 | 0.9 | 10.4 | 0.00 | 0.00 | 0.00 | 76 | 1016.9 |
| 20260510021555 | 50 | 24 | 1.7 | 5.2 | 0.00 | 0.00 | 0.00 | 76 | 1016.8 |
| 20260510020051 | 50 | 342 | 1.7 | 7.8 | 0.00 | 0.00 | 0.00 | 77 | 1016.9 |
| 20260510014554 | 51 | 28 | 1.7 | 7.8 | 0.00 | 0.00 | 0.00 | 80 | 1017.0 |
| 20260510013102 | 51 | 8 | 1.7 | 6.1 | 0.00 | 0.00 | 0.00 | 81 | 1016.8 |
| 20260510011545 | 52 | 356 | 1.7 | 8.7 | 0.00 | 0.00 | 0.00 | 80 | 1016.9 |
| 20260510010059 | 53 | 101 | 0.9 | 7.0 | 0.00 | 0.00 | 0.00 | 79 | 1017.0 |
| 20260510004556 | 53 | 0 | 1.7 | 5.2 | 0.00 | 0.00 | 0.00 | 78 | 1016.8 |
| 20260510003046 | 53 | 98 | 0.9 | 7.0 | 0.00 | 0.00 | 0.00 | 78 | 1016.8 |
| 20260510001551 | 54 | 93 | 0.0 | 6.1 | 0.00 | 0.00 | 0.00 | 79 | 1017.0 |
| 20260510000045 | 54 | 93 | 1.7 | 7.0 | 0.00 | 0.00 | 0.00 | 80 | 1017.0 |
| 20260509234603 | 54 | 14 | 0.9 | 4.3 | 0.00 | 0.00 | 0.00 | 80 | 1017.0 |
| 20260509233047 | 54 | 332 | 0.9 | 4.3 | 0.00 | 0.00 | 0.00 | 84 | 1016.9 |
| 20260509231545 | 54 | 62 | 0.9 | 6.1 | 0.00 | 0.00 | 0.00 | 86 | 1016.9 |
| 20260509230050 | 54 | 0 | 1.7 | 6.1 | 0.00 | 0.00 | 0.00 | 86 | 1016.7 |
| 20260509224548 | 54 | 45 | 1.7 | 8.7 | 0.00 | 0.00 | 0.00 | 87 | 1016.6 |
| 20260509223050 | 54 | 141 | 0.9 | 8.7 | 0.00 | 0.00 | 0.00 | 87 | 1016.6 |
| 20260509221605 | 55 | 8 | 0.9 | 7.0 | 0.00 | 0.00 | 0.00 | 87 | 1016.7 |
| 20260509220059 | 55 | 46 | 2.6 | 7.8 | 0.00 | 0.00 | 0.00 | 86 | 1016.8 |
| 20260509214549 | 55 | 55 | 1.7 | 9.6 | 0.00 | 0.00 | 0.00 | 84 | 1016.8 |
| 20260509213052 | 56 | 8 | 1.7 | 7.0 | 0.00 | 0.00 | 0.00 | 82 | 1016.7 |
| 20260509211551 | 56 | 72 | 1.7 | 7.0 | 0.00 | 0.00 | 0.00 | 78 | 1016.7 |
| 20260509210059 | 57 | 335 | 0.9 | 7.0 | 0.00 | 0.00 | 0.00 | 75 | 1016.6 |
| 20260509204555 | 57 | 124 | 0.0 | 3.5 | 0.00 | 0.00 | 0.00 | 75 | 1016.3 |
| 20260509203050 | 57 | 328 | 0.0 | 2.6 | 0.00 | 0.00 | 0.00 | 75 | 1016.2 |
| 20260509201549 | 58 | 0 | 0.9 | 5.2 | 0.00 | 0.00 | 0.00 | 74 | 1016.2 |
| 20260509200045 | 59 | 81 | 0.9 | 4.3 | 0.00 | 0.00 | 0.00 | 73 | 1016.1 |
| 20260509194544 | 61 | 23 | 0.9 | 3.5 | 0.00 | 0.00 | 0.00 | 69 | 1016.1 |
| 20260509193049 | 61 | 113 | 0.9 | 7.0 | 0.00 | 0.00 | 0.00 | 68 | 1015.9 |
| 20260509191608 | 62 | 82 | 0.0 | 2.6 | 0.00 | 0.00 | 0.00 | 67 | 1015.9 |
| 20260509190054 | 63 | 117 | 0.9 | 5.2 | 0.00 | 0.00 | 0.00 | 66 | 1015.8 |
| 20260509184545 | 64 | 16 | 0.9 | 6.1 | 0.00 | 0.00 | 0.00 | 64 | 1015.7 |
| 20260509183047 | 65 | 0 | 0.9 | 7.8 | 0.00 | 0.00 | 0.00 | 64 | 1015.7 |
| 20260509181546 | 66 | 55 | 1.7 | 6.1 | 0.00 | 0.00 | 0.00 | 61 | 1015.7 |
| 20260509180044 | 67 | 42 | 0.9 | 7.0 | 0.00 | 0.00 | 0.00 | 60 | 1015.7 |